User: anonymous   Login
Location: Unspecified
(0.0000°N, 0.0000°E)
Time: 12:15:26
(UTC+00:00)
Language:

USA 250 - Orbit

View from above orbital plane
View from above orbital plane
View from above satellite
View from above satellite

Ground track
Ground track

The orbit data is extracted from the following two-line orbital elements,

1 39652U 14020A   18298.59159606 0.00000000  00000-0  00000-0 0    04
2 39652   2.0141 328.8602 0001996 229.6505 130.3492  1.00270000    00
Epoch (UTC): 25 October 2018 14:11:53
Eccentricity: 0.0001996
inclination: 2.0141°
perigee height: 35778 km
apogee height: 35795 km
right ascension of ascending node: 328.8602°
argument of perigee: 229.6505°
revolutions per day: 1.00270000
mean anomaly at epoch: 130.3492°
orbit number at epoch: 0

The dashed part of the orbit path shows where the satellite is in the earth's shadow,  

DLR